AirNav   Jet Aviation Boston
 
 525 users online  

1C5 Bolingbrook's Clow International Airport
Bolingbrook, Illinois, USA

GOING TO BOLINGBROOK?


FAA INFORMATION EFFECTIVE 26 APRIL 2018

Location

FAA Identifier: 1C5
Lat/Long: 41-41-45.3000N / 088-07-46.2000W
41-41.755000N / 088-07.770000W
41.6959167 / -88.1295000
(estimated)
Elevation: 674.9 ft. / 206 m (estimated)
Variation: 04W (2020)
Time zone: UTC -5 (UTC -6 during Standard Time)
Zip code: 60490

Airport Operations

Airport use: Open to the public
Activation date: 03/1967
Control tower: no
ARTCC: CHICAGO CENTER
FSS: KANKAKEE FLIGHT SERVICE STATION
NOTAMs facility: IKK (NOTAM-D service available)
Attendance: 0700-1800
Pattern altitude: 1504.9 ft. MSL
Wind indicator: lighted
Segmented circle: no
Lights: MIRL RY 18/36 PRESET LOW INTST DUSK-DAWN TO INCR INTST - CTAF
Beacon: white-green (lighted land airport)
Operates sunset to sunrise.

Airport Communications

CTAF: 122.9
CHICAGO APPROACH: 119.35
CHICAGO DEPARTURE: 119.35
IC: 119.35
WX AWOS-3 at LOT (5 nm S): 118.525 (815-588-4802)
WX AWOS-3 at JOT (11 nm S): 119.975 (815-730-9560)
WX ASOS at DPA (14 nm NW): PHONE 630-584-2728
WX ASOS at ARR (16 nm W): PHONE 630-466-5622
WX AWOS-3 at 06C (18 nm N): 128.275 ((847) 895-2887)
WX ASOS at MDW (18 nm E): PHONE 773-884-4424
WX ASOS at ORD (19 nm NE): PHONE 773-462-0118

Nearby radio navigation aids

VOR radial/distance  VOR name  Freq  Var
JOTr041/12.3JOLIET VOR/DME112.3002E
DPAr138/15.3DUPAGE VOR/DME108.4002E
ORDr208/20.2CHICAGO O'HARE VOR/DME113.9002E
CGTr292/27.4CHICAGO HEIGHTS VORTAC114.2002E
EONr327/29.8PEOTONE VORTAC113.2002E
OBKr196/32.5NORTHBROOK VOR/DME113.0002W
IKKr341/39.4KANKAKEE VOR/DME111.6000E

Airport Services

Fuel available: 100LL JET-A
Parking: hangars and tiedowns
Airframe service: MAJOR
Powerplant service: MAJOR
Bottled oxygen: NONE
Bulk oxygen: NONE

Runway Information

Runway 18/36

Dimensions: 3360 x 75 ft. / 1024 x 23 m
Surface: asphalt, in good condition
Weight bearing capacity: 
Single wheel: 12.5
Runway edge lights: medium intensity
RUNWAY 18  RUNWAY 36
Latitude: 41-42.031245N41-41.478230N
Longitude: 088-07.779947W088-07.758665W
Elevation: 674.9 ft.657.0 ft.
Traffic pattern: leftleft
Runway heading: 182 magnetic, 178 true002 magnetic, 358 true
Markings: nonprecision, in good conditionnonprecision, in good condition
Touchdown point: yes, no lightsyes, no lights
Obstructions: 34 ft. tree, 694 ft. from runway, 90 ft. left of centerline, 14:1 slope to clearnone

Airport Ownership and Management from official FAA records

Ownership: Publicly-owned
Owner: VILLAGE OF BOLINGBROOK
375 W BRIARCLIFF ROAD
BOLINGBROOK, IL 60440
Phone 630-226-8400
Manager: JOSEPH DE PAULO
130 S CLOW INTL PARKWAY
BOLINGBROOK, IL 60490
Phone 630-378-0479
EMAIL ADDRESS: JOEDEPAULO@GMAIL.COM

Airport Operational Statistics

Aircraft based on the field: 82
Single engine airplanes: 67
Multi engine airplanes: 9
Helicopters: 1
Ultralights: 5
    
Aircraft operations: avg 137/day *
52% local general aviation
44% transient general aviation
4% air taxi
* for 12-month period ending 31 August 2017

Additional Remarks

TWY ONLY 20 FT WIDE. LARGE ARCT CONSIDER BACK-TAXI.
NO TGL, ALL FULL STOP LDGS.
FOR CD CTC CHICAGO APCH AT 847-289-0926.
FLT SCHOOL OPS ONLY: 123.50

Instrument Procedures

NOTE: All procedures below are presented as PDF files. If you need a reader for these files, you should download the free Adobe Reader.

NOT FOR NAVIGATION. Please procure official charts for flight.
FAA instrument procedures published for use from 26 April 2018 at 901Z to 24 May 2018 at 0900Z.

 
IAPs - Instrument Approach Procedures
RNAV (GPS)-B **CHANGED**   download (160KB)
VOR-A **CHANGED**   download (168KB)
NOTE: Special Take-Off Minimums/Departure Procedures apply   download (369KB)

Other nearby airports with instrument procedures:

KLOT - Lewis University Airport (5 nm S)
KDPA - DuPage Airport (14 nm NW)
KARR - Aurora Municipal Airport (16 nm W)
KMDW - Chicago Midway International Airport (18 nm E)
KORD - Chicago O'Hare International Airport (19 nm NE)
 
Loc | Ops | Rwys | IFR | FBO | Links
Com | Nav | Svcs | Stats | Notes

AirNav Hotels Sweepstakes
 
Area around 1C5 (Bolingbrook's Clow International Airport)
 
Road maps at: MapQuest Bing Google
 
Aerial photo
WARNING: Photo may not be current or correct
Aerial photo of 1C5 (Bolingbrook's Clow International Airport)
Photo courtesy of Sean

Do you have a better or more recent aerial photo of Bolingbrook's Clow International Airport that you would like to share? If so, please send us your photo.

 
Sectional chart

 
Airport distance calculator
Flying to Bolingbrook's Clow International Airport? Find the distance to fly.

From to 1C5

Sunrise and sunset
Times for 23-May-2018
 Local
(UTC-5)
 Zulu
(UTC)
Morning civil twilight04:5409:54
Sunrise05:2710:27
Sunset20:1201:12
Evening civil twilight20:4401:44

Current date and time
Zulu (UTC)  23-May-2018 05:26:53
Local (UTC-5)  23-May-2018 00:26:53
 
METAR
KLOT 
5nm S 
230515Z AUTO 16003KT 4SM BR CLR 12/12 A3011 RMK AO2 T01210115
KJOT 
11nm S 
230515Z AUTO 00000KT 5SM BR CLR 13/13 A3011 RMK AO2 T01340133
KDPA 
14nm N 
230522Z 00000KT 1/4SM FG VV004 12/12 A3010 RMK AO2 T01170117 RVRNO
KARR 
16nm W 
230510Z AUTO 00000KT 3SM BR CLR 13/13 A3010 RMK AO2 T01330133
K06C 
18nm N 
230515Z AUTO 00000KT 4SM CLR 11/10 A3010 RMK AO2 T01080103
KMDW 
18nm E 
230453Z 14003KT 10SM CLR 12/10 A3010 RMK AO2 SLP191 T01220100
KORD 
19nm NE 
230451Z 00000KT 8SM CLR 12/11 A3009 RMK AO2 SLP190 T01220106
TAF
KDPA 
14nm N 
221720Z 2218/2318 34007KT P6SM SCT015 BKN025 FM222100 34008KT P6SM SCT025 FM230100 06004KT P6SM SCT035 FM230400 VRB02KT 3SM BR SCT003 BKN008 OVC012 TEMPO 2308/2312 1/2SM FG VV003 FM231400 VRB03KT P6SM FEW250
KMDW 
18nm E 
230322Z 2303/2406 09004KT P6SM BKN035 FM230700 VRB02KT 5SM BR BCFG SCT004 TEMPO 2309/2312 2SM BR MIFG OVC004 FM231300 VRB03KT P6SM FEW300 FM231800 07007KT P6SM SCT250 TEMPO 2318/2320 08011KT
KORD 
19nm NE 
230322Z 2303/2406 09004KT P6SM BKN035 FM230800 00000KT 5SM BR BCFG SCT003 TEMPO 2309/2312 1 1/2SM BR MIFG OVC003 FM231300 00000KT P6SM FEW300 FM231800 08007KT P6SM SCT250 TEMPO 2318/2320 08011KT
NOTAMs
Click for the latest NOTAMs
NOTAMs are issued by the DoD/FAA and will open in a separate window not controlled by AirNav.

 

 
 

FBO, Fuel Providers, and Aircraft Ground Support

  
 Business Name 
 
 Contact 
 
 Services / Description 
 
Fuel Prices
 
Comments
  
A&M Aviation, Inc. 630-759-1555
[web site]
[email]
Aviation fuel, Aircraft parking (ramp or tiedown), Hangars, Passenger terminal and lounge, Flight training, Aircraft rental, Aerial tours / aerial sightseeing, ...
 
Courtesy car   Cessna Pilot Center   Wireless Internet Access (WiFi)  
 
More info about A&M Aviation, Inc.
Phillips 66
100LL Jet A
SS $4.86 $3.56 
 Updated 08-May-2018
  no comments
SS=Self service
Update Fuel Prices
 

Where to Eat: Catering, Restaurants, Food shops

  
 Business Name 
 
 Contact 
 
 Services / Description 
 
Distance
 
Comments
  
Charlie's at 1C5 630-771-0501
no information available

If you are affiliated with Charlie's at 1C5 and would like to show here your services, contact info, web link, logo, and more, click here
on airport  
   3 read write
 

Would you like to see your business listed on this page?

 If your business provides an interesting product or service to pilots, flight crews, aircraft, or users of the Bolingbrook's Clow International Airport, you should consider listing it here.  To start the listing process, click on the button below
 
Add a business
 

Other Pages about Bolingbrook's Clow International Airport

www.clowairport.com
www.cyberair.com/...
 
Update a link
 
Copyright © AirNav, LLC. All rights reserved. Privacy Policy  Contact